Simultaneous Nadir Overpasses (SNOs) Predictions

Prediction of SNOs between GOES-16 and TERRA Satellite Orbit:

Table of predicted SNOs for the next 14.0 days since TLE Epoch: 1/8/2022
Index Date Time (GOES-16) GOES-16 Lat,Lon TERRA Lat,Lon Distance(km) Time Diff (sec)
1 01/08/2022 15:17:16 -0.00, -75.19 -0.30, -73.77 161.45 80
2 01/09/2022 03:41:19 -0.01, -75.18 -0.83, -78.96 430.39 80
3 01/10/2022 15:05:01 -0.00, -75.21 -0.93, -70.81 499.38 80
4 01/11/2022 03:29:04 -0.00, -75.19 -0.20, -76.00 92.39 80
5 01/13/2022 03:14:09 0.00, -75.21 0.43, -73.04 246.05 80
6 01/13/2022 15:38:04 0.00, -75.23 0.63, -78.20 337.83 80
7 01/15/2022 15:25:49 -0.01, -75.25 -0.00, -75.24 1.17 80
8 01/17/2022 15:10:54 -0.01, -75.28 -0.64, -72.29 340.23 80
9 01/18/2022 03:34:57 0.01, -75.27 -0.47, -77.47 251.02 80
10 01/20/2022 03:20:02 0.01, -75.30 0.17, -74.52 89.13 80
11 01/20/2022 15:43:57 -0.00, -75.32 0.89, -79.68 494.43 80
12 01/22/2022 03:07:46 -0.01, -75.34 0.76, -71.55 430.28 80
